Погода в Зернограде

Россия / Ростовская область     46°50′58″N   40°18′46″E
темп.,
°C
ветер,
м/с
пор.,
м/с
влажн.,
%
обл.,
%
осадки,
мм/ч
давл.,
гПа
погр.,
м
26 января, вт
вт2600:00+3юв8156393 0.0 1014241
03:00+2ююв6126796 0.0 1013209
06:00+2ююв51291100 0.7 1015262
09:00+4ююз513100100 0.9 1016292
12:00+5ююз3910099 0.0 1017231
15:00+4ююв34100100 0.0 101778
18:00+3юв5999100 0.0 1017167
21:00+3юв61481100 0.0 1017251
27 января, ср
ср2700:00+5юв71576100 0.0 1016281
03:00+4юв61477100 0.0 1014242
06:00+3юв61182100 0.0 1013208
09:00+3юв51181100 0.0 1012270
12:00+5юв5977100 0.0 1012340
15:00+5вюв71177100 0.0 1010351
18:00+4вюв71583100 0.0 1009445
21:00+3юв71488100 0.0 1008433
28 января, чт
чт2800:00+3вюв61289100 0.0 1007287
03:00+3вюв61193100 0.0 1006259
06:00+2в61192100 0.0 1005266
09:00+2юв3895100 0.0 1006294
12:00+6юв4682100 0.0 1007282
15:00+7ююз41178100 0.0 1007598
18:00+6ю2298100 2.3 100836
21:00+5з2497100 3.9 1009105
29 января, пт
пт2900:00+4зюз3984100 0.1 1011477
03:00+2юз498592 0.1 1011231
06:00+1ююз488755 0.0 1010180
09:00+2ююз6138027 0.0 1010583
12:00+6юз9156128 0.0 10101699
15:00+5ююз9166759 0.1 10091796
18:00+3юз91493100 0.5 10091036
21:00+3ююз61386100 1.3 1010878
30 января, сб
сб3000:00+3ююз71481100 0.5 1010644
03:00+4юз81677100 0.5 1009922
06:00+3юз8167599 0.0 1009912
09:00+3ююз7168096 0.0 1010822
12:00+7ююз81469100 0.0 10101364
15:00+7ююз51069100 0.1 1008969
18:00+6ююв61165100 0.0 1008309
21:00+4юв61180100 0.0 1007286